sat.trackr.live / text

‹ back to catalog

STARLINK-30281

NORAD 57716 · 2023-129U

PAYLOAD ACTIVE UNKNOWN

§ Identity

Operator
Country
US
Launch date
2023-08-27
Launch site
AFETR
Launch vehicle
Mass (kg)
RCS (m²)

Purposes: comms

External: N2YO · Heavens-Above · Gunter

§ Orbital elements

Epoch: 2026-05-25T03:48:22.894848Z

Period
94.27 min
Inclination
43.0027°
Eccentricity
0.0001389
Mean motion
15.27575035 rev/d
Perigee alt
482.1 km
Apogee alt
484.0 km
Semi-major
6,861.2 km
B*
1.4108e-4
RAAN
46.3710°
Arg perigee
280.1684°
Mean anomaly
79.9011°
Rev number
15,223

§ Raw data

STARLINK-302811 57716U 23129U   26145.15859832  .00003621  00000+0  14108-3 0  99902 57716  43.0027  46.3710 0001389 280.1684  79.9011 15.27575035152235

JSON: /api/v1/satellites/57716 · /tle

For live sub-satellite position, see the globe view (requires WebGL).

§ Visibility from observer

Set your observer location to see the next 7 days of passes ≥ 10°. The values pass through the URL so the page stays shareable.

No JS? Fill the form by hand. The geolocation button needs JavaScript.